Location: Claremont
(33.9858°S, 18.4575°E)
Time: 20:40:51
(UTC+00:00)

Helios 1A Rocket - Pass Details

Date: 03 March 2021
Orbit: 564 x 584 km, 98.3° (Epoch: 21 April)

Event Time Altitude Azimuth Distance (km) Brightness Sun altitude
Rises 18:50:27 0° 171° (S) 2,845 6.6 -19.0°
Reaches altitude 10° 18:52:38 10° 172° (S) 1,935 5.8 -19.4°
Maximum altitude 18:56:49 71° 256° (WSW) 627 3.2 -20.2°
Drops below altitude 10° 19:00:55 10° 339° (NNW) 1,899 5.5 -21.0°
Sets 19:03:03 0° 341° (NNW) 2,787 6.4 -21.4°
